Regional Weather Roundup
Issued by NWS Goodland, KS

Home | Current Version | Previous Version | Text Only | Print | Product List | Glossary Off
Versions: 1 2 3 4 5 6 7 8 9 10 11 12 13 14 15 16 17 18 19 20 21 22 23 24 25 26 27 28 29 30 31 32 33 34 35 36 37 38 39 40 41 42 43 44 45 46 47 48 49 50

000
ASUS43 KGLD 280808
RWRGLD

GOODLAND FORECAST AREA HOURLY WEATHER ROUNDUP
NATIONAL WEATHER SERVICE GOODLAND KS
200 AM MDT WED JUN 28 2017

...OFFICIAL OBSERVATIONS...

CITY           SKY/WX    TMP DP  RH WIND       PRES   REMARKS
GOODLAND KS    CLOUDY    65  60  84 S12       29.79F
HILL CITY KS   CLOUDY    75  59  57 S23G30    29.74F
IMPERIAL NEB   PTCLDY    62  55  77 CALM      29.79R
MCCOOK NEB     CLOUDY    68  62  81 S5        29.74F
AKRON CO       CLEAR     59  46  62 N10       29.90S
BURLINGTON CO  CLEAR     64  57  78 E5        29.81F
LIMON CO       CLEAR     57  42  57 N7        29.93F
$$

...UNOFFICIAL OBSERVATIONS...

CITY           SKY/WX    TMP DP  RH WIND       PRES   REMARKS
LENORA KS        N/A     74  32  21 MISG        N/A
NORTON KS      RAIN      75  52  43 SW12      29.77R
SHARON SPRINGS   N/A     67  60  79 SE12G23     N/A
TRIBUNE KS     PTCLDY    72  59  64 SE15      29.77
TRENTON NEB      N/A     68  32  26 CALM        N/A
KIT CARSON CO    N/A     63  54  73 MISG        N/A
YUMA CO        FAIR      55  52  88 NW6       29.86S
$$




USA.gov is the U.S. government's official web portal to all federal, state and local government web resources and services.